Year,Month,Day,Hour,Minute,Value (Times are PST for temperature in C)
2014,08,11,00,00,17.80
2014,08,11,00,01,17.80
2014,08,11,00,02,17.80
2014,08,11,00,03,17.80
2014,08,11,00,04,17.80
2014,08,11,00,05,17.80
2014,08,11,00,06,17.80
2014,08,11,00,07,17.70
2014,08,11,00,08,17.70
2014,08,11,00,09,17.70
2014,08,11,00,10,17.70
2014,08,11,00,11,17.70
2014,08,11,00,12,17.70
2014,08,11,00,13,17.70
2014,08,11,00,14,17.60
2014,08,11,00,15,17.60
2014,08,11,00,16,17.60
2014,08,11,00,17,17.60
2014,08,11,00,18,17.60
2014,08,11,00,19,17.50
2014,08,11,00,20,17.50
2014,08,11,00,21,17.50
2014,08,11,00,22,17.40
2014,08,11,00,23,17.40
2014,08,11,00,24,17.40
2014,08,11,00,25,17.40
2014,08,11,00,26,17.40
2014,08,11,00,27,17.40
2014,08,11,00,28,17.30
2014,08,11,00,29,17.30
2014,08,11,00,30,17.30
2014,08,11,00,31,17.30
2014,08,11,00,32,17.30
2014,08,11,00,33,17.30
2014,08,11,00,34,17.20
2014,08,11,00,35,17.20
2014,08,11,00,36,17.20
2014,08,11,00,37,17.20
2014,08,11,00,38,17.20
2014,08,11,00,39,17.20
2014,08,11,00,40,17.20
2014,08,11,00,41,17.10
2014,08,11,00,42,17.10
2014,08,11,00,43,17.10
2014,08,11,00,44,17.10
2014,08,11,00,45,17.10
2014,08,11,00,46,17.00
2014,08,11,00,47,17.00
2014,08,11,00,48,17.00
2014,08,11,00,49,17.00
2014,08,11,00,50,16.90
2014,08,11,00,51,16.90
2014,08,11,00,52,16.90
2014,08,11,00,53,16.90
2014,08,11,00,54,16.90
2014,08,11,00,55,16.90
2014,08,11,00,56,16.80
2014,08,11,00,57,16.80
2014,08,11,00,58,16.80
2014,08,11,00,59,16.80
2014,08,11,01,00,16.80
2014,08,11,01,01,16.80
2014,08,11,01,02,16.80
2014,08,11,01,03,16.80
2014,08,11,01,04,16.70
2014,08,11,01,05,16.70
2014,08,11,01,06,16.70
2014,08,11,01,07,16.70
2014,08,11,01,08,16.70
2014,08,11,01,09,16.70
2014,08,11,01,10,16.60
2014,08,11,01,11,16.60
2014,08,11,01,12,16.60
2014,08,11,01,13,16.60
2014,08,11,01,14,16.60
2014,08,11,01,15,16.50
2014,08,11,01,16,16.50
2014,08,11,01,17,16.50
2014,08,11,01,18,16.40
2014,08,11,01,19,16.40
2014,08,11,01,20,16.40
2014,08,11,01,21,16.40
2014,08,11,01,22,16.40
2014,08,11,01,23,16.30
2014,08,11,01,24,16.30
2014,08,11,01,25,16.30
2014,08,11,01,26,16.30
2014,08,11,01,27,16.30
2014,08,11,01,28,16.20
2014,08,11,01,29,16.20
2014,08,11,01,30,16.20
2014,08,11,01,31,16.20
2014,08,11,01,32,16.10
2014,08,11,01,33,16.10
2014,08,11,01,34,16.10
2014,08,11,01,35,16.10
2014,08,11,01,36,16.10
2014,08,11,01,37,16.10
2014,08,11,01,38,16.00
2014,08,11,01,39,16.00
2014,08,11,01,40,16.00
2014,08,11,01,41,16.00
2014,08,11,01,42,15.90
2014,08,11,01,43,15.90
2014,08,11,01,44,15.90
2014,08,11,01,45,15.90
2014,08,11,01,46,15.90
2014,08,11,01,47,15.90
2014,08,11,01,48,15.90
2014,08,11,01,49,15.80
2014,08,11,01,50,15.80
2014,08,11,01,51,15.80
2014,08,11,01,52,15.80
2014,08,11,01,53,15.80
2014,08,11,01,54,15.80
2014,08,11,01,55,15.80
2014,08,11,01,56,15.80
2014,08,11,01,57,15.70
2014,08,11,01,58,15.70
2014,08,11,01,59,15.70
2014,08,11,02,00,15.70
2014,08,11,02,01,15.70
2014,08,11,02,02,15.70
2014,08,11,02,03,15.70
2014,08,11,02,04,15.70
2014,08,11,02,05,15.60
2014,08,11,02,06,15.60
2014,08,11,02,07,15.60
2014,08,11,02,08,15.60
2014,08,11,02,09,15.60
2014,08,11,02,10,15.60
2014,08,11,02,11,15.60
2014,08,11,02,12,15.60
2014,08,11,02,13,15.60
2014,08,11,02,14,15.60
2014,08,11,02,15,15.60
2014,08,11,02,16,15.60
2014,08,11,02,17,15.60
2014,08,11,02,18,15.60
2014,08,11,02,19,15.60
2014,08,11,02,20,15.60
2014,08,11,02,21,15.60
2014,08,11,02,22,15.60
2014,08,11,02,23,15.60
2014,08,11,02,24,15.60
2014,08,11,02,25,15.60
2014,08,11,02,26,15.60
2014,08,11,02,27,15.60
2014,08,11,02,28,15.60
2014,08,11,02,29,15.60
2014,08,11,02,30,15.60
2014,08,11,02,31,15.60
2014,08,11,02,32,15.50
2014,08,11,02,33,15.50
2014,08,11,02,34,15.50
2014,08,11,02,35,15.50
2014,08,11,02,36,15.50
2014,08,11,02,37,15.50
2014,08,11,02,38,15.40
2014,08,11,02,39,15.40
2014,08,11,02,40,15.40
2014,08,11,02,41,15.40
2014,08,11,02,42,15.40
2014,08,11,02,43,15.40
2014,08,11,02,44,15.40
2014,08,11,02,45,15.40
2014,08,11,02,46,15.30
2014,08,11,02,47,15.30
2014,08,11,02,48,15.30
2014,08,11,02,49,15.30
2014,08,11,02,50,15.30
2014,08,11,02,51,15.30
2014,08,11,02,52,15.30
2014,08,11,02,53,15.20
2014,08,11,02,54,15.20
2014,08,11,02,55,15.20
2014,08,11,02,56,15.20
2014,08,11,02,57,15.20
2014,08,11,02,58,15.20
2014,08,11,02,59,15.10
2014,08,11,03,00,15.10
2014,08,11,03,01,15.00
2014,08,11,03,02,15.00
2014,08,11,03,06,15.00
2014,08,11,03,07,15.00
2014,08,11,03,08,15.00
2014,08,11,03,09,15.00
2014,08,11,03,10,15.00
2014,08,11,03,11,15.00
2014,08,11,03,12,15.00
2014,08,11,03,13,15.00
2014,08,11,03,14,15.00
2014,08,11,03,15,15.00
2014,08,11,03,16,15.00
2014,08,11,03,17,14.90
2014,08,11,03,18,14.90
2014,08,11,03,19,14.90
2014,08,11,03,20,14.80
2014,08,11,03,21,14.80
2014,08,11,03,22,14.80
2014,08,11,03,23,14.80
2014,08,11,03,24,14.80
2014,08,11,03,25,14.80
2014,08,11,03,26,14.80
2014,08,11,03,27,14.80
2014,08,11,03,28,14.80
2014,08,11,03,29,14.80
2014,08,11,03,30,14.80
2014,08,11,03,31,14.80
2014,08,11,03,32,14.80
2014,08,11,03,33,14.80
2014,08,11,03,34,14.80
2014,08,11,03,35,14.80
2014,08,11,03,36,14.80
2014,08,11,03,37,14.80
2014,08,11,03,38,14.80
2014,08,11,03,39,14.80
2014,08,11,03,40,14.80
2014,08,11,03,41,14.80
2014,08,11,03,42,14.80
2014,08,11,03,43,14.80
2014,08,11,03,44,14.80
2014,08,11,03,45,14.80
2014,08,11,03,46,14.80
2014,08,11,03,47,14.80
2014,08,11,03,48,14.80
2014,08,11,03,49,14.80
2014,08,11,03,50,14.70
2014,08,11,03,51,14.70
2014,08,11,03,52,14.70
2014,08,11,03,53,14.70
2014,08,11,03,54,14.70
2014,08,11,03,55,14.70
2014,08,11,03,56,14.70
2014,08,11,03,57,14.60
2014,08,11,03,58,14.60
2014,08,11,03,59,14.60
2014,08,11,04,00,14.60
2014,08,11,04,01,14.60
2014,08,11,04,02,14.60
2014,08,11,04,03,14.60
2014,08,11,04,04,14.60
2014,08,11,04,05,14.60
2014,08,11,04,06,14.50
2014,08,11,04,07,14.50
2014,08,11,04,08,14.50
2014,08,11,04,09,14.50
2014,08,11,04,10,14.40
2014,08,11,04,11,14.40
2014,08,11,04,12,14.40
2014,08,11,04,13,14.40
2014,08,11,04,14,14.40
2014,08,11,04,15,14.40
2014,08,11,04,16,14.40
2014,08,11,04,17,14.40
2014,08,11,04,18,14.40
2014,08,11,04,19,14.30
2014,08,11,04,20,14.30
2014,08,11,04,21,14.40
2014,08,11,04,22,14.40
2014,08,11,04,23,14.40
2014,08,11,04,24,14.40
2014,08,11,04,25,14.40
2014,08,11,04,26,14.40
2014,08,11,04,27,14.40
2014,08,11,04,28,14.40
2014,08,11,04,29,14.40
2014,08,11,04,30,14.40
2014,08,11,04,31,14.40
2014,08,11,04,32,14.40
2014,08,11,04,33,14.40
2014,08,11,04,34,14.40
2014,08,11,04,35,14.40
2014,08,11,04,36,14.40
2014,08,11,04,37,14.40
2014,08,11,04,38,14.40
2014,08,11,04,39,14.40
2014,08,11,04,40,14.40
2014,08,11,04,41,14.40
2014,08,11,04,42,14.40
2014,08,11,04,43,14.40
2014,08,11,04,44,14.30
2014,08,11,04,45,14.40
2014,08,11,04,46,14.40
2014,08,11,04,47,14.30
2014,08,11,04,48,14.30
2014,08,11,04,49,14.30
2014,08,11,04,50,14.30
2014,08,11,04,51,14.30
2014,08,11,04,52,14.30
2014,08,11,04,53,14.30
2014,08,11,04,54,14.30
2014,08,11,04,55,14.30
2014,08,11,04,56,14.30
2014,08,11,04,57,14.30
2014,08,11,04,58,14.30
2014,08,11,04,59,14.30
2014,08,11,05,00,14.30
2014,08,11,05,01,14.30
2014,08,11,05,02,14.20
2014,08,11,05,03,14.20
2014,08,11,05,04,14.20
2014,08,11,05,05,14.20
2014,08,11,05,06,14.20
2014,08,11,05,07,14.20
2014,08,11,05,08,14.20
2014,08,11,05,09,14.20
2014,08,11,05,10,14.20
2014,08,11,05,11,14.20
2014,08,11,05,12,14.20
2014,08,11,05,13,14.10
2014,08,11,05,14,14.10
2014,08,11,05,15,14.10
2014,08,11,05,16,14.10
2014,08,11,05,17,14.10
2014,08,11,05,18,14.00
2014,08,11,05,19,14.00
2014,08,11,05,20,13.90
2014,08,11,05,21,13.90
2014,08,11,05,22,13.90
2014,08,11,05,23,13.90
2014,08,11,05,24,13.90
2014,08,11,05,25,13.80
2014,08,11,05,26,13.80
2014,08,11,05,27,13.80
2014,08,11,05,28,13.80
2014,08,11,05,29,13.80
2014,08,11,05,30,13.80
2014,08,11,05,31,13.80
2014,08,11,05,32,13.70
2014,08,11,05,33,13.70
2014,08,11,05,34,13.70
2014,08,11,05,35,13.70
2014,08,11,05,36,13.70
2014,08,11,05,37,13.70
2014,08,11,05,38,13.70
2014,08,11,05,39,13.60
2014,08,11,05,40,13.60
2014,08,11,05,41,13.60
2014,08,11,05,42,13.60
2014,08,11,05,43,13.60
2014,08,11,05,44,13.60
2014,08,11,05,45,13.60
2014,08,11,05,46,13.60
2014,08,11,05,47,13.60
2014,08,11,05,48,13.60
2014,08,11,05,49,13.60
2014,08,11,05,50,13.60
2014,08,11,05,51,13.60
2014,08,11,05,52,13.60
2014,08,11,05,53,13.60
2014,08,11,05,54,13.60
2014,08,11,05,55,13.60
2014,08,11,05,56,13.60
2014,08,11,05,57,13.70
2014,08,11,05,58,13.70
2014,08,11,05,59,13.70
2014,08,11,06,00,13.70
2014,08,11,06,01,13.70
2014,08,11,06,02,13.70
2014,08,11,06,03,13.70
2014,08,11,06,04,13.70
2014,08,11,06,05,13.70
2014,08,11,06,06,13.70
2014,08,11,06,07,13.70
2014,08,11,06,08,13.70
2014,08,11,06,09,13.70
2014,08,11,06,10,13.70
2014,08,11,06,11,13.70
2014,08,11,06,12,13.70
2014,08,11,06,13,13.70
2014,08,11,06,14,13.70
2014,08,11,06,15,13.70
2014,08,11,06,16,13.70
2014,08,11,06,17,13.80
2014,08,11,06,18,13.80
2014,08,11,06,19,13.80
2014,08,11,06,20,13.80
2014,08,11,06,21,13.80
2014,08,11,06,22,13.80
2014,08,11,06,23,13.80
2014,08,11,06,24,13.90
2014,08,11,06,25,13.90
2014,08,11,06,26,13.90
2014,08,11,06,27,13.90
2014,08,11,06,28,13.90
2014,08,11,06,29,13.90
2014,08,11,06,30,13.90
2014,08,11,06,31,13.90
2014,08,11,06,32,13.90
2014,08,11,06,33,13.90
2014,08,11,06,34,13.90
2014,08,11,06,35,13.90
2014,08,11,06,36,13.90
2014,08,11,06,37,14.00
2014,08,11,06,38,14.00
2014,08,11,06,39,14.00
2014,08,11,06,40,14.00
2014,08,11,06,41,14.00
2014,08,11,06,42,14.00
2014,08,11,06,43,14.10
2014,08,11,06,44,14.10
2014,08,11,06,45,14.10
2014,08,11,06,46,14.10
2014,08,11,06,47,14.10
2014,08,11,06,48,14.20
2014,08,11,06,49,14.20
2014,08,11,06,50,14.20
2014,08,11,06,51,14.20
2014,08,11,06,52,14.20
2014,08,11,06,53,14.20
2014,08,11,06,54,14.30
2014,08,11,06,55,14.30
2014,08,11,06,56,14.30
2014,08,11,06,57,14.30
2014,08,11,06,58,14.30
2014,08,11,06,59,14.30
2014,08,11,07,00,14.40
2014,08,11,07,01,14.40
2014,08,11,07,02,14.40
2014,08,11,07,03,14.40
2014,08,11,07,04,14.40
2014,08,11,07,05,14.40
2014,08,11,07,06,14.40
2014,08,11,07,07,14.50
2014,08,11,07,08,14.50
2014,08,11,07,09,14.50
2014,08,11,07,10,14.50
2014,08,11,07,11,14.60
2014,08,11,07,12,14.60
2014,08,11,07,13,14.60
2014,08,11,07,14,14.60
2014,08,11,07,15,14.60
2014,08,11,07,16,14.60
2014,08,11,07,17,14.60
2014,08,11,07,18,14.70
2014,08,11,07,19,14.70
2014,08,11,07,20,14.70
2014,08,11,07,21,14.70
2014,08,11,07,22,14.70
2014,08,11,07,23,14.70
2014,08,11,07,24,14.70
2014,08,11,07,25,14.70
2014,08,11,07,26,14.80
2014,08,11,07,27,14.80
2014,08,11,07,28,14.80
2014,08,11,07,29,14.80
2014,08,11,07,30,14.90
2014,08,11,07,31,14.90
2014,08,11,07,32,15.00
2014,08,11,07,33,15.00
2014,08,11,07,34,15.00
2014,08,11,07,35,15.00
2014,08,11,07,36,15.00
2014,08,11,07,37,15.00
2014,08,11,07,38,15.00
2014,08,11,07,39,15.00
2014,08,11,07,40,15.00
2014,08,11,07,41,15.10
2014,08,11,07,42,15.10
2014,08,11,07,43,15.20
2014,08,11,07,44,15.30
2014,08,11,07,45,15.30
2014,08,11,07,46,15.40
2014,08,11,07,47,15.40
2014,08,11,07,48,15.50
2014,08,11,07,49,15.50
2014,08,11,07,50,15.60
2014,08,11,07,51,15.60
2014,08,11,07,52,15.70
2014,08,11,07,53,15.70
2014,08,11,07,54,15.80
2014,08,11,07,55,15.80
2014,08,11,07,56,15.90
2014,08,11,07,57,16.00
2014,08,11,07,58,16.10
2014,08,11,07,59,16.10
2014,08,11,08,00,16.20
2014,08,11,08,01,16.30
2014,08,11,08,02,16.30
2014,08,11,08,03,16.40
2014,08,11,08,04,16.50
2014,08,11,08,05,16.60
2014,08,11,08,06,16.60
2014,08,11,08,07,16.70
2014,08,11,08,08,16.80
2014,08,11,08,09,16.90
2014,08,11,08,10,16.90
2014,08,11,08,11,17.00
2014,08,11,08,12,17.10
2014,08,11,08,13,17.10
2014,08,11,08,14,17.20
2014,08,11,08,15,17.30
2014,08,11,08,16,17.40
2014,08,11,08,17,17.50
2014,08,11,08,18,17.50
2014,08,11,08,19,17.60
2014,08,11,08,20,17.70
2014,08,11,08,21,17.80
2014,08,11,08,22,17.90
2014,08,11,08,23,18.00
2014,08,11,08,24,18.10
2014,08,11,08,25,18.20
2014,08,11,08,26,18.30
2014,08,11,08,27,18.40
2014,08,11,08,28,18.50
2014,08,11,08,29,18.50
2014,08,11,08,30,18.60
2014,08,11,08,31,18.70
2014,08,11,08,32,18.80
2014,08,11,08,33,18.90
2014,08,11,08,34,19.00
2014,08,11,08,35,19.10
2014,08,11,08,36,19.10
2014,08,11,08,37,19.20
2014,08,11,08,38,19.30
2014,08,11,08,39,19.40
2014,08,11,08,40,19.50
2014,08,11,08,41,19.60
2014,08,11,08,42,19.70
2014,08,11,08,43,19.70
2014,08,11,08,44,19.80
2014,08,11,08,45,19.90
2014,08,11,08,46,20.00
2014,08,11,08,47,20.00
2014,08,11,08,48,20.10
2014,08,11,08,49,20.20
2014,08,11,08,50,20.30
2014,08,11,08,51,20.40
2014,08,11,08,52,20.50
2014,08,11,08,53,20.60
2014,08,11,08,54,20.70
2014,08,11,08,55,20.80
2014,08,11,08,56,21.00
2014,08,11,08,57,21.10
2014,08,11,08,58,21.20
2014,08,11,08,59,21.30
2014,08,11,09,00,21.30
2014,08,11,09,01,21.40
2014,08,11,09,02,21.50
2014,08,11,09,03,21.60
2014,08,11,09,04,21.80
2014,08,11,09,05,21.80
2014,08,11,09,06,21.90
2014,08,11,09,07,22.10
2014,08,11,09,08,22.20
2014,08,11,09,09,22.30
2014,08,11,09,10,22.40
2014,08,11,09,11,22.50
2014,08,11,09,12,22.70
2014,08,11,09,13,22.80
2014,08,11,09,14,22.90
2014,08,11,09,15,23.00
2014,08,11,09,16,23.10
2014,08,11,09,17,23.10
2014,08,11,09,18,23.20
2014,08,11,09,19,23.20
2014,08,11,09,20,23.30
2014,08,11,09,21,23.30
2014,08,11,09,22,23.40
2014,08,11,09,23,23.40
2014,08,11,09,24,23.50
2014,08,11,09,25,23.60
2014,08,11,09,26,23.60
2014,08,11,09,27,23.70
2014,08,11,09,28,23.70
2014,08,11,09,29,23.80
2014,08,11,09,30,23.90
2014,08,11,09,31,24.00
2014,08,11,09,32,24.00
2014,08,11,09,33,24.20
2014,08,11,09,34,24.20
2014,08,11,09,35,24.30
2014,08,11,09,36,24.40
2014,08,11,09,37,24.50
2014,08,11,09,38,24.60
2014,08,11,09,39,24.70
2014,08,11,09,40,24.70
2014,08,11,09,41,24.80
2014,08,11,09,42,24.80
2014,08,11,09,43,24.80
2014,08,11,09,44,24.80
2014,08,11,09,45,24.80
2014,08,11,09,46,24.90
2014,08,11,09,47,24.90
2014,08,11,09,48,24.90
2014,08,11,09,49,25.00
2014,08,11,09,50,25.00
2014,08,11,09,51,25.00
2014,08,11,09,52,25.10
2014,08,11,09,53,25.10
2014,08,11,09,54,25.20
2014,08,11,09,55,25.20
2014,08,11,09,56,25.30
2014,08,11,09,57,25.30
2014,08,11,09,58,25.40
2014,08,11,09,59,25.40
2014,08,11,10,00,25.40
2014,08,11,10,01,25.40
2014,08,11,10,02,25.40
2014,08,11,10,03,25.50
2014,08,11,10,04,25.40
2014,08,11,10,05,25.40
2014,08,11,10,06,25.40
2014,08,11,10,07,25.40
2014,08,11,10,08,25.40
2014,08,11,10,09,25.40
2014,08,11,10,10,25.50
2014,08,11,10,11,25.50
2014,08,11,10,12,25.50
2014,08,11,10,13,25.60
2014,08,11,10,14,25.60
2014,08,11,10,15,25.60
2014,08,11,10,16,25.60
2014,08,11,10,17,25.60
2014,08,11,10,18,25.60
2014,08,11,10,19,25.60
2014,08,11,10,20,25.60
2014,08,11,10,21,25.60
2014,08,11,10,22,25.60
2014,08,11,10,23,25.60
2014,08,11,10,24,25.70
2014,08,11,10,25,25.70
2014,08,11,10,26,25.70
2014,08,11,10,27,25.70
2014,08,11,10,28,25.70
2014,08,11,10,29,25.70
2014,08,11,10,30,25.80
2014,08,11,10,31,25.90
2014,08,11,10,32,25.90
2014,08,11,10,33,26.00
2014,08,11,10,34,26.10
2014,08,11,10,35,26.30
2014,08,11,10,36,26.40
2014,08,11,10,37,26.40
2014,08,11,10,38,26.50
2014,08,11,10,39,26.60
2014,08,11,10,40,26.70
2014,08,11,10,41,26.80
2014,08,11,10,42,26.90
2014,08,11,10,43,27.00
2014,08,11,10,44,27.10
2014,08,11,10,45,27.20
2014,08,11,10,46,27.30
2014,08,11,10,47,27.30
2014,08,11,10,48,27.30
2014,08,11,10,49,27.30
2014,08,11,10,50,27.30
2014,08,11,10,51,27.30
2014,08,11,10,52,27.30
2014,08,11,10,53,27.20
2014,08,11,10,54,27.20
2014,08,11,10,55,27.20
2014,08,11,10,56,27.20
2014,08,11,10,57,27.20
2014,08,11,10,58,27.20
2014,08,11,10,59,27.10
2014,08,11,11,00,27.10
2014,08,11,11,01,27.20
2014,08,11,11,02,27.10
2014,08,11,11,03,27.10
2014,08,11,11,04,27.10
2014,08,11,11,05,27.10
2014,08,11,11,06,27.10
2014,08,11,11,07,27.10
2014,08,11,11,08,27.10
2014,08,11,11,09,27.10
2014,08,11,11,10,27.20
2014,08,11,11,11,27.20
2014,08,11,11,12,27.20
2014,08,11,11,13,27.20
2014,08,11,11,14,27.20
2014,08,11,11,15,27.20
2014,08,11,11,16,27.30
2014,08,11,11,17,27.30
2014,08,11,11,18,27.30
2014,08,11,11,19,27.30
2014,08,11,11,20,27.40
2014,08,11,11,21,27.40
2014,08,11,11,22,27.40
2014,08,11,11,23,27.40
2014,08,11,11,24,27.40
2014,08,11,11,25,27.40
2014,08,11,11,26,27.40
2014,08,11,11,27,27.50
2014,08,11,11,28,27.60
2014,08,11,11,29,27.70
2014,08,11,11,30,27.70
2014,08,11,11,31,27.80
2014,08,11,11,32,27.80
2014,08,11,11,33,27.90
2014,08,11,11,34,28.00
2014,08,11,11,35,28.00
2014,08,11,11,36,28.10
2014,08,11,11,37,28.20
2014,08,11,11,38,28.30
2014,08,11,11,39,28.30
2014,08,11,11,40,28.40
2014,08,11,11,41,28.40
2014,08,11,11,42,28.50
2014,08,11,11,43,28.60
2014,08,11,11,44,28.60
2014,08,11,11,45,28.70
2014,08,11,11,46,28.70
2014,08,11,11,47,28.80
2014,08,11,11,48,28.80
2014,08,11,11,49,28.90
2014,08,11,11,50,28.90
2014,08,11,11,51,29.00
2014,08,11,11,52,29.10
2014,08,11,11,53,29.10
2014,08,11,11,54,29.20
2014,08,11,11,55,29.30
2014,08,11,11,56,29.40
2014,08,11,11,57,29.40
2014,08,11,11,58,29.50
2014,08,11,11,59,29.40
2014,08,11,12,00,29.40
2014,08,11,12,01,29.40
2014,08,11,12,02,29.40
2014,08,11,12,03,29.30
2014,08,11,12,04,29.30
2014,08,11,12,05,29.20
2014,08,11,12,06,29.20
2014,08,11,12,07,29.20
2014,08,11,12,08,29.30
2014,08,11,12,09,29.30
2014,08,11,12,10,29.40
2014,08,11,12,11,29.40
2014,08,11,12,12,29.50
2014,08,11,12,13,29.50
2014,08,11,12,14,29.60
2014,08,11,12,15,29.60
2014,08,11,12,16,29.70
2014,08,11,12,17,29.70
2014,08,11,12,18,29.70
2014,08,11,12,19,29.60
2014,08,11,12,20,29.60
2014,08,11,12,21,29.50
2014,08,11,12,22,29.50
2014,08,11,12,23,29.50
2014,08,11,12,24,29.50
2014,08,11,12,25,29.60
2014,08,11,12,26,29.60
2014,08,11,12,27,29.60
2014,08,11,12,28,29.60
2014,08,11,12,29,29.60
2014,08,11,12,30,29.50
2014,08,11,12,31,29.50
2014,08,11,12,32,29.60
2014,08,11,12,33,29.60
2014,08,11,12,34,29.60
2014,08,11,12,35,29.60
2014,08,11,12,36,29.70
2014,08,11,12,37,29.60
2014,08,11,12,38,29.60
2014,08,11,12,39,29.60
2014,08,11,12,40,29.60
2014,08,11,12,41,29.70
2014,08,11,12,42,29.80
2014,08,11,12,43,29.80
2014,08,11,12,44,30.00
2014,08,11,12,45,30.10
2014,08,11,12,46,30.10
2014,08,11,12,47,30.20
2014,08,11,12,48,30.30
2014,08,11,12,49,30.30
2014,08,11,12,50,30.40
2014,08,11,12,51,30.50
2014,08,11,12,52,30.50
2014,08,11,12,53,30.60
2014,08,11,12,54,30.60
2014,08,11,12,55,30.70
2014,08,11,12,56,30.70
2014,08,11,12,57,30.70
2014,08,11,12,58,30.80
2014,08,11,12,59,30.80
2014,08,11,13,00,30.90
2014,08,11,13,01,30.90
2014,08,11,13,02,30.90
2014,08,11,13,03,30.90
2014,08,11,13,04,30.80
2014,08,11,13,05,30.80
2014,08,11,13,06,30.80
2014,08,11,13,07,30.80
2014,08,11,13,08,30.80
2014,08,11,13,09,30.80
2014,08,11,13,10,30.70
2014,08,11,13,11,30.80
2014,08,11,13,12,30.80
2014,08,11,13,13,30.80
2014,08,11,13,14,30.80
2014,08,11,13,15,30.80
2014,08,11,13,16,30.80
2014,08,11,13,17,30.90
2014,08,11,13,18,30.90
2014,08,11,13,19,31.00
2014,08,11,13,20,31.00
2014,08,11,13,21,30.90
2014,08,11,13,22,30.90
2014,08,11,13,23,30.90
2014,08,11,13,24,30.90
2014,08,11,13,25,30.90
2014,08,11,13,26,30.90
2014,08,11,13,27,30.90
2014,08,11,13,28,30.90
2014,08,11,13,29,30.90
2014,08,11,13,30,30.90
2014,08,11,13,31,30.90
2014,08,11,13,32,30.90
2014,08,11,13,33,30.90
2014,08,11,13,34,31.00
2014,08,11,13,35,31.00
2014,08,11,13,36,31.00
2014,08,11,13,37,31.00
2014,08,11,13,38,31.00
2014,08,11,13,39,31.10
2014,08,11,13,40,31.10
2014,08,11,13,41,31.10
2014,08,11,13,42,31.10
2014,08,11,13,43,31.10
2014,08,11,13,44,31.20
2014,08,11,13,45,31.20
2014,08,11,13,46,31.30
2014,08,11,13,47,31.30
2014,08,11,13,48,31.30
2014,08,11,13,49,31.30
2014,08,11,13,50,31.30
2014,08,11,13,51,31.30
2014,08,11,13,52,31.30
2014,08,11,13,53,31.30
2014,08,11,13,54,31.40
2014,08,11,13,55,31.40
2014,08,11,13,56,31.40
2014,08,11,13,57,31.50
2014,08,11,13,58,31.50
2014,08,11,13,59,31.50
2014,08,11,14,00,31.50
2014,08,11,14,01,31.50
2014,08,11,14,02,31.50
2014,08,11,14,03,31.60
2014,08,11,14,04,31.60
2014,08,11,14,05,31.70
2014,08,11,14,06,31.70
2014,08,11,14,07,31.80
2014,08,11,14,08,31.90
2014,08,11,14,09,31.90
2014,08,11,14,10,32.00
2014,08,11,14,11,32.00
2014,08,11,14,12,32.00
2014,08,11,14,13,32.10
2014,08,11,14,14,32.10
2014,08,11,14,15,32.10
2014,08,11,14,16,32.10
2014,08,11,14,17,32.10
2014,08,11,14,18,32.00
2014,08,11,14,19,32.00
2014,08,11,14,20,32.00
2014,08,11,14,21,32.00
2014,08,11,14,22,32.00
2014,08,11,14,23,31.90
2014,08,11,14,24,31.90
2014,08,11,14,25,32.00
2014,08,11,14,26,32.00
2014,08,11,14,27,32.10
2014,08,11,14,28,32.10
2014,08,11,14,29,32.20
2014,08,11,14,30,32.30
2014,08,11,14,31,32.30
2014,08,11,14,32,32.40
2014,08,11,14,33,32.40
2014,08,11,14,34,32.50
2014,08,11,14,35,32.60
2014,08,11,14,36,32.60
2014,08,11,14,37,32.70
2014,08,11,14,38,32.70
2014,08,11,14,39,32.70
2014,08,11,14,40,32.70
2014,08,11,14,41,32.70
2014,08,11,14,42,32.70
2014,08,11,14,43,32.70
2014,08,11,14,44,32.70
2014,08,11,14,45,32.60
2014,08,11,14,46,32.50
2014,08,11,14,47,32.50
2014,08,11,14,48,32.40
2014,08,11,14,49,32.40
2014,08,11,14,50,32.40
2014,08,11,14,51,32.40
2014,08,11,14,52,32.40
2014,08,11,14,53,32.40
2014,08,11,14,54,32.40
2014,08,11,14,55,32.30
2014,08,11,14,56,32.30
2014,08,11,14,57,32.30
2014,08,11,14,58,32.20
2014,08,11,14,59,32.20
2014,08,11,15,00,32.20
2014,08,11,15,01,32.30
2014,08,11,15,02,32.30
2014,08,11,15,03,32.30
2014,08,11,15,04,32.20
2014,08,11,15,05,32.20
2014,08,11,15,06,32.10
2014,08,11,15,07,32.00
2014,08,11,15,08,32.00
2014,08,11,15,09,31.90
2014,08,11,15,10,31.80
2014,08,11,15,11,31.70
2014,08,11,15,12,31.70
2014,08,11,15,13,31.60
2014,08,11,15,14,31.60
2014,08,11,15,15,31.60
2014,08,11,15,16,31.50
2014,08,11,15,17,31.50
2014,08,11,15,18,31.50
2014,08,11,15,19,31.50
2014,08,11,15,20,31.60
2014,08,11,15,21,31.60
2014,08,11,15,22,31.60
2014,08,11,15,23,31.70
2014,08,11,15,24,31.70
2014,08,11,15,25,31.70
2014,08,11,15,26,31.80
2014,08,11,15,27,31.80
2014,08,11,15,28,31.80
2014,08,11,15,29,31.80
2014,08,11,15,30,31.80
2014,08,11,15,31,31.70
2014,08,11,15,32,31.70
2014,08,11,15,33,31.70
2014,08,11,15,34,31.70
2014,08,11,15,35,31.70
2014,08,11,15,36,31.70
2014,08,11,15,37,31.70
2014,08,11,15,38,31.70
2014,08,11,15,39,31.60
2014,08,11,15,40,31.60
2014,08,11,15,41,31.50
2014,08,11,15,42,31.40
2014,08,11,15,43,31.40
2014,08,11,15,44,31.40
2014,08,11,15,45,31.40
2014,08,11,15,46,31.40
2014,08,11,15,47,31.40
2014,08,11,15,48,31.30
2014,08,11,15,49,31.30
2014,08,11,15,50,31.30
2014,08,11,15,51,31.20
2014,08,11,15,52,31.20
2014,08,11,15,53,31.20
2014,08,11,15,54,31.10
2014,08,11,15,55,31.10
2014,08,11,15,56,31.10
2014,08,11,15,57,31.10
2014,08,11,15,58,31.20
2014,08,11,15,59,31.20
2014,08,11,16,00,31.20
2014,08,11,16,01,31.20
2014,08,11,16,02,31.30
2014,08,11,16,03,31.30
2014,08,11,16,04,31.30
2014,08,11,16,05,31.40
2014,08,11,16,06,31.40
2014,08,11,16,07,31.40
2014,08,11,16,08,31.40
2014,08,11,16,09,31.40
2014,08,11,16,10,31.40
2014,08,11,16,11,31.40
2014,08,11,16,12,31.40
2014,08,11,16,13,31.40
2014,08,11,16,14,31.30
2014,08,11,16,15,31.30
2014,08,11,16,16,31.30
2014,08,11,16,17,31.40
2014,08,11,16,18,31.40
2014,08,11,16,19,31.40
2014,08,11,16,20,31.40
2014,08,11,16,21,31.50
2014,08,11,16,22,31.50
2014,08,11,16,23,31.50
2014,08,11,16,24,31.50
2014,08,11,16,25,31.50
2014,08,11,16,26,31.50
2014,08,11,16,27,31.50
2014,08,11,16,28,31.40
2014,08,11,16,29,31.50
2014,08,11,16,30,31.50
2014,08,11,16,31,31.60
2014,08,11,16,32,31.70
2014,08,11,16,33,31.70
2014,08,11,16,34,31.80
2014,08,11,16,35,31.80
2014,08,11,16,36,31.90
2014,08,11,16,37,31.90
2014,08,11,16,38,31.90
2014,08,11,16,39,31.90
2014,08,11,16,40,31.90
2014,08,11,16,41,31.90
2014,08,11,16,42,31.90
2014,08,11,16,43,31.90
2014,08,11,16,44,31.90
2014,08,11,16,45,31.90
2014,08,11,16,46,31.90
2014,08,11,16,47,32.00
2014,08,11,16,48,32.00
2014,08,11,16,49,32.00
2014,08,11,16,50,32.00
2014,08,11,16,51,32.00
2014,08,11,16,52,32.00
2014,08,11,16,53,32.00
2014,08,11,16,54,32.10
2014,08,11,16,55,32.10
2014,08,11,16,56,32.10
2014,08,11,16,57,32.20
2014,08,11,16,58,32.20
2014,08,11,16,59,32.30
2014,08,11,17,00,32.30
2014,08,11,17,01,32.40
2014,08,11,17,02,32.40
2014,08,11,17,03,32.50
2014,08,11,17,04,32.50
2014,08,11,17,05,32.40
2014,08,11,17,06,32.40
2014,08,11,17,07,32.40
2014,08,11,17,08,32.40
2014,08,11,17,09,32.30
2014,08,11,17,10,32.20
2014,08,11,17,11,32.20
2014,08,11,17,12,32.20
2014,08,11,17,13,32.20
2014,08,11,17,14,32.10
2014,08,11,17,15,32.10
2014,08,11,17,16,32.10
2014,08,11,17,17,32.10
2014,08,11,17,18,32.00
2014,08,11,17,19,32.00
2014,08,11,17,20,32.00
2014,08,11,17,21,31.90
2014,08,11,17,22,31.90